Weather History for Fairbanks, AK

Change the Weather History Date:

Thursday, November 8, 2012

  Actual Average Record
Temperature  
Mean Temperature -11 °F 6 °F  
Max Temperature 0 °F 14 °F 41 °F (1976)
Min Temperature -23 °F -2 °F -35 °F (1956)
Degree Days  
Heating Degree Days 76 59  
Month to date heating degree days 544 455  
Since 1 July heating degree days 2829 2714  
Cooling Degree Days 0 0  
Month to date cooling degree days 0 0  
Year to date cooling degree days 34 61  
Moisture  
Dew Point -17 °F    
Average Humidity 76    
Maximum Humidity 83    
Minimum Humidity 59    
Precipitation  
Precipitation 0.00 in 0.02 in 0.56 in (1936)
Month to date precipitation 0.12 0.18  
Year to date precipitation 9.26 9.68  
Snow  
Snow 0.00 in 0.40 in 4.00 in (1936)
Month to date snowfall 1.4 3.5  
Since 1 July snowfall 8.5 16.1  
Since 1 September snowfall 8.5 16.1  
Snow Depth 4.00 in    
Sea Level Pressure  
Sea Level Pressure 30.40 in    
Wind  
Wind Speed 1 mph (NNE)    
Max Wind Speed 5 mph    
Max Gust Speed -    
Visibility 10 miles    
Events      
T = Trace of Precipitation, MM = Missing Value Source: NWS Daily Summary

Daily Weather History Graph

Daily Weather History Graph

Search for Another Location

Airport:

Trip Planner

Search our weather history database for the weather conditions in past years. The results will help you decide how hot, cold, wet, or windy it might be!

Date:

Astronomy

Nov. 08, 2012 Rise Set
Actual Time 9:04 AM AKST 4:04 PM AKST
Civil Twilight 8:06 AM AKST 5:03 PM AKST
Nautical Twilight 7:05 AM AKST 6:03 PM AKST
Astronomical Twilight 6:08 AM AKST 7:00 PM AKST
Moon 1:04 AM AKST (11/8) 2:42 PM AKST (11/8)
Length of Visible Light 8h 57m
Length of Day
6h 59m
Waning Crescent, 31% of the Moon is Illuminated
Nov 8
Waning Crescent
Nov 13
New
Nov 20
First Quarter
Nov 28
Full
Dec 6
Last Quarter

Hourly Weather History & Observations

Time (AKST) Temp. Windchill Dew Point Humidity Pressure Visibility Wind Dir Wind Speed Gust Speed Precip Events Conditions
12:53 AM -20.9 °F - -26.0 °F 77% 30.58 in 10.0 mi Calm Calm - N/A   Clear
1:53 AM -20.0 °F - -26.0 °F 74% 30.57 in 10.0 mi Calm Calm - N/A   Clear
3:53 AM -20.9 °F -31.7 °F -27.0 °F 73% 30.55 in 10.0 mi North 3.5 mph - N/A   Clear
4:53 AM -20.0 °F -30.7 °F -26.0 °F 74% 30.54 in 10.0 mi NW 3.5 mph - N/A   Clear
5:53 AM -20.0 °F - -26.0 °F 74% 30.53 in 10.0 mi Calm Calm - N/A   Clear
6:53 AM -22.0 °F - -27.9 °F 74% 30.52 in 10.0 mi Calm Calm - N/A   Clear
7:53 AM -20.0 °F - -26.0 °F 74% 30.49 in 10.0 mi Calm Calm - N/A   Partly Cloudy
8:53 AM -20.0 °F - -25.1 °F 78% 30.48 in 10.0 mi Calm Calm - N/A   Partly Cloudy
9:53 AM -18.0 °F - -23.1 °F 78% 30.46 in 10.0 mi Calm Calm - N/A   Partly Cloudy
10:53 AM -15.0 °F - -20.0 °F 78% 30.45 in 10.0 mi Calm Calm - N/A   Partly Cloudy
11:53 AM -11.0 °F -22.8 °F -17.0 °F 75% 30.43 in 10.0 mi NNE 4.6 mph - N/A   Partly Cloudy
12:53 PM -7.1 °F -18.1 °F -11.0 °F 83% 30.41 in 10.0 mi South 4.6 mph - N/A   Partly Cloudy
1:53 PM -2.9 °F -11.2 °F -9.0 °F 75% 30.39 in 10.0 mi NE 3.5 mph - N/A   Scattered Clouds
2:53 PM -4.0 °F - -9.0 °F 79% 30.36 in 10.0 mi Calm Calm - N/A   Scattered Clouds
3:53 PM -2.9 °F - -8.0 °F 79% 30.33 in 10.0 mi Calm Calm - N/A   Scattered Clouds
4:53 PM -8.0 °F - -13.0 °F 79% 30.31 in 10.0 mi Calm Calm - N/A   Mostly Cloudy
5:53 PM -8.0 °F -19.2 °F -13.0 °F 79% 30.30 in 10.0 mi NNE 4.6 mph - N/A   Mostly Cloudy
6:53 PM -7.1 °F - -11.0 °F 83% 30.27 in 10.0 mi Calm Calm - N/A   Mostly Cloudy
7:53 PM -8.0 °F - -13.0 °F 79% 30.27 in 10.0 mi Calm Calm - N/A   Mostly Cloudy
8:53 PM -5.1 °F - -9.9 °F 80% 30.25 in 10.0 mi Calm Calm - N/A   Mostly Cloudy
9:53 PM -4.0 °F - -9.0 °F 79% 30.25 in 10.0 mi Calm Calm - N/A   Mostly Cloudy
10:53 PM -2.0 °F - -7.1 °F 79% 30.24 in 10.0 mi Calm Calm - N/A   Mostly Cloudy
11:53 PM -0.0 °F - -5.1 °F 79% 30.22 in 10.0 mi Calm Calm - N/A   Mostly Cloudy